owner,sensor,date,latitude,longitude,vertical_datum,sea_water_practical_salinity,qcFlag 
SCCF RECON,ioos:station:SCCF:11:1,2017-01-01T00:00:00Z,26.4679,-82.0631,1.879,30.64,1111122 
SCCF RECON,ioos:station:SCCF:11:1,2017-01-01T01:00:00Z,26.4679,-82.0631,1.81,30.74,1111122 
SCCF RECON,ioos:station:SCCF:11:1,2017-01-01T02:00:00Z,26.4679,-82.0631,1.81,30.75,1111122 
SCCF RECON,ioos:station:SCCF:11:1,2017-01-01T03:00:00Z,26.4679,-82.0631,1.89,30.8,1111122 
SCCF RECON,ioos:station:SCCF:11:1,2017-01-01T04:00:00Z,26.4679,-82.0631,2.04,31.89,1111122 
SCCF RECON,ioos:station:SCCF:11:1,2017-01-01T05:00:00Z,26.4679,-82.0631,2.14,31.55,1111122 
SCCF RECON,ioos:station:SCCF:11:1,2017-01-01T06:00:00Z,26.4679,-82.0631,2.206,31.45,1111122 
SCCF RECON,ioos:station:SCCF:11:1,2017-01-01T07:00:00Z,26.4679,-82.0631,2.22,31.36,1111122 
SCCF RECON,ioos:station:SCCF:11:1,2017-01-01T08:00:00Z,26.4679,-82.0631,2.2,31.64,1111122 
SCCF RECON,ioos:station:SCCF:11:1,2017-01-01T09:00:00Z,26.4679,-82.0631,2.098,31.11,1111122 
SCCF RECON,ioos:station:SCCF:11:1,2017-01-01T10:00:00Z,26.4679,-82.0631,1.969,31.12,1111122 
SCCF RECON,ioos:station:SCCF:11:1,2017-01-01T11:00:00Z,26.4679,-82.0631,1.84,31.32,1111122 
SCCF RECON,ioos:station:SCCF:11:1,2017-01-01T12:00:00Z,26.4679,-82.0631,1.718,31.37,1111122 
SCCF RECON,ioos:station:SCCF:11:1,2017-01-01T13:00:00Z,26.4679,-82.0631,1.6,31.51,1111122 
SCCF RECON,ioos:station:SCCF:11:1,2017-01-01T14:00:00Z,26.4679,-82.0631,1.53,31.59,1111122 
SCCF RECON,ioos:station:SCCF:11:1,2017-01-01T15:00:00Z,26.4679,-82.0631,1.555,31.39,1111122 
SCCF RECON,ioos:station:SCCF:11:1,2017-01-01T16:00:00Z,26.4679,-82.0631,1.705,31.33,1111122 
SCCF RECON,ioos:station:SCCF:11:1,2017-01-01T17:00:00Z,26.4679,-82.0631,1.879,31.24,1111122 
SCCF RECON,ioos:station:SCCF:11:1,2017-01-01T18:00:00Z,26.4679,-82.0631,1.98,31.44,1111122 
SCCF RECON,ioos:station:SCCF:11:1,2017-01-01T19:00:00Z,26.4679,-82.0631,2.058,31.56,1111122 
SCCF RECON,ioos:station:SCCF:11:1,2017-01-01T20:00:00Z,26.4679,-82.0631,2.117,31.85,1111122 
SCCF RECON,ioos:station:SCCF:11:1,2017-01-01T21:00:00Z,26.4679,-82.0631,2.146,32.23,1111122 
SCCF RECON,ioos:station:SCCF:11:1,2017-01-01T22:00:00Z,26.4679,-82.0631,2.123,32.53,1111122 
SCCF RECON,ioos:station:SCCF:11:1,2017-01-01T23:00:00Z,26.4679,-82.0631,2.069,32.02,1111122 
SCCF RECON,ioos:station:SCCF:11:1,2017-01-02T00:00:00Z,26.4679,-82.0631,2.0,31.47,1111122 
SCCF RECON,ioos:station:SCCF:11:1,2017-01-02T01:00:00Z,26.4679,-82.0631,1.95,31.45,1111122 
SCCF RECON,ioos:station:SCCF:11:1,2017-01-02T02:00:00Z,26.4679,-82.0631,1.93,31.42,1111122 
SCCF RECON,ioos:station:SCCF:11:1,2017-01-02T03:00:00Z,26.4679,-82.0631,1.94,31.82,1111122 
SCCF RECON,ioos:station:SCCF:11:1,2017-01-02T04:00:00Z,26.4679,-82.0631,2.04,31.79,1111122 
SCCF RECON,ioos:station:SCCF:11:1,2017-01-02T05:00:00Z,26.4679,-82.0631,2.16,33.29,1111122 
SCCF RECON,ioos:station:SCCF:11:1,2017-01-02T06:00:00Z,26.4679,-82.0631,2.235,33.14,1111122 
SCCF RECON,ioos:station:SCCF:11:1,2017-01-02T07:00:00Z,26.4679,-82.0631,2.27,33.01,1111122 
SCCF RECON,ioos:station:SCCF:11:1,2017-01-02T08:00:00Z,26.4679,-82.0631,2.246,32.89,1111122 
SCCF RECON,ioos:station:SCCF:11:1,2017-01-02T09:00:00Z,26.4679,-82.0631,2.169,32.12,1111122 
SCCF RECON,ioos:station:SCCF:11:1,2017-01-02T10:00:00Z,26.4679,-82.0631,2.039,31.67,1111122 
SCCF RECON,ioos:station:SCCF:11:1,2017-01-02T11:00:00Z,26.4679,-82.0631,1.913,31.77,1111122 
SCCF RECON,ioos:station:SCCF:11:1,2017-01-02T12:00:00Z,26.4679,-82.0631,1.789,31.78,1111122 
SCCF RECON,ioos:station:SCCF:11:1,2017-01-02T13:00:00Z,26.4679,-82.0631,1.67,31.79,1111122 
SCCF RECON,ioos:station:SCCF:11:1,2017-01-02T14:00:00Z,26.4679,-82.0631,1.555,31.82,1111122 
SCCF RECON,ioos:station:SCCF:11:1,2017-01-02T15:00:00Z,26.4679,-82.0631,1.49,31.75,1111122 
SCCF RECON,ioos:station:SCCF:11:1,2017-01-02T16:00:00Z,26.4679,-82.0631,1.54,31.74,1111122 
SCCF RECON,ioos:station:SCCF:11:1,2017-01-02T17:00:00Z,26.4679,-82.0631,1.68,31.82,1111122 
SCCF RECON,ioos:station:SCCF:11:1,2017-01-02T18:00:00Z,26.4679,-82.0631,1.808,31.71,1111122 
SCCF RECON,ioos:station:SCCF:11:1,2017-01-02T19:00:00Z,26.4679,-82.0631,1.892,31.91,1111122 
SCCF RECON,ioos:station:SCCF:11:1,2017-01-02T20:00:00Z,26.4679,-82.0631,1.957,32.07,1111122 
SCCF RECON,ioos:station:SCCF:11:1,2017-01-02T21:00:00Z,26.4679,-82.0631,2.01,32.1,1111122 
SCCF RECON,ioos:station:SCCF:11:1,2017-01-02T22:00:00Z,26.4679,-82.0631,2.03,32.21,1111122 
SCCF RECON,ioos:station:SCCF:11:1,2017-01-02T23:00:00Z,26.4679,-82.0631,2.0,32.52,1111122 
SCCF RECON,ioos:station:SCCF:11:1,2017-01-03T00:00:00Z,26.4679,-82.0631,1.899,31.82,1111122 
SCCF RECON,ioos:station:SCCF:11:1,2017-01-03T01:00:00Z,26.4679,-82.0631,1.81,31.76,1111122 
SCCF RECON,ioos:station:SCCF:11:1,2017-01-03T02:00:00Z,26.4679,-82.0631,1.741,31.77,1111122 
SCCF RECON,ioos:station:SCCF:11:1,2017-01-03T03:00:00Z,26.4679,-82.0631,1.75,31.75,1111122 
SCCF RECON,ioos:station:SCCF:11:1,2017-01-03T04:00:00Z,26.4679,-82.0631,1.81,31.95,1111122 
SCCF RECON,ioos:station:SCCF:11:1,2017-01-03T05:00:00Z,26.4679,-82.0631,1.91,32.29,1111122 
SCCF RECON,ioos:station:SCCF:11:1,2017-01-03T06:00:00Z,26.4679,-82.0631,1.998,33.17,1111122 
SCCF RECON,ioos:station:SCCF:11:1,2017-01-03T07:00:00Z,26.4679,-82.0631,2.06,32.91,1111122 
SCCF RECON,ioos:station:SCCF:11:1,2017-01-03T08:00:00Z,26.4679,-82.0631,2.07,32.98,1111122 
SCCF RECON,ioos:station:SCCF:11:1,2017-01-03T09:00:00Z,26.4679,-82.0631,2.05,32.99,1111122 
SCCF RECON,ioos:station:SCCF:11:1,2017-01-03T10:00:00Z,26.4679,-82.0631,2.04,32.87,1111122 
SCCF RECON,ioos:station:SCCF:11:1,2017-01-03T11:00:00Z,26.4679,-82.0631,1.99,33.18,1111122 
SCCF RECON,ioos:station:SCCF:11:1,2017-01-03T12:00:00Z,26.4679,-82.0631,1.86,32.12,1111122 
SCCF RECON,ioos:station:SCCF:11:1,2017-01-03T13:00:00Z,26.4679,-82.0631,1.732,32.02,1111122 
SCCF RECON,ioos:station:SCCF:11:1,2017-01-03T14:00:00Z,26.4679,-82.0631,1.62,31.96,1111122 
SCCF RECON,ioos:station:SCCF:11:1,2017-01-03T15:00:00Z,26.4679,-82.0631,1.52,31.97,1111122 
SCCF RECON,ioos:station:SCCF:11:1,2017-01-03T16:00:00Z,26.4679,-82.0631,1.498,31.88,1111122 
SCCF RECON,ioos:station:SCCF:11:1,2017-01-03T17:00:00Z,26.4679,-82.0631,1.56,32.2,1111122 
SCCF RECON,ioos:station:SCCF:11:1,2017-01-03T18:00:00Z,26.4679,-82.0631,1.685,32.77,1111122 
SCCF RECON,ioos:station:SCCF:11:1,2017-01-03T19:00:00Z,26.4679,-82.0631,1.81,32.77,1111122 
SCCF RECON,ioos:station:SCCF:11:1,2017-01-03T20:00:00Z,26.4679,-82.0631,1.9,32.9,1111122 
SCCF RECON,ioos:station:SCCF:11:1,2017-01-03T21:00:00Z,26.4679,-82.0631,1.991,32.96,1111122 
SCCF RECON,ioos:station:SCCF:11:1,2017-01-03T22:00:00Z,26.4679,-82.0631,2.036,32.8,1111122 
SCCF RECON,ioos:station:SCCF:11:1,2017-01-03T23:00:00Z,26.4679,-82.0631,2.03,32.85,1111122 
SCCF RECON,ioos:station:SCCF:11:1,2017-01-04T00:00:00Z,26.4679,-82.0631,1.959,32.54,1111122 
SCCF RECON,ioos:station:SCCF:11:1,2017-01-04T01:00:00Z,26.4679,-82.0631,1.856,32.21,1111122 
SCCF RECON,ioos:station:SCCF:11:1,2017-01-04T02:00:00Z,26.4679,-82.0631,1.801,32.17,1111122 
SCCF RECON,ioos:station:SCCF:11:1,2017-01-04T03:00:00Z,26.4679,-82.0631,1.769,32.35,1111122 
SCCF RECON,ioos:station:SCCF:11:1,2017-01-04T04:00:00Z,26.4679,-82.0631,1.74,32.19,1111122 
SCCF RECON,ioos:station:SCCF:11:1,2017-01-04T05:00:00Z,26.4679,-82.0631,1.79,32.47,1111122 
SCCF RECON,ioos:station:SCCF:11:1,2017-01-04T06:00:00Z,26.4679,-82.0631,1.88,32.49,1111122 
SCCF RECON,ioos:station:SCCF:11:1,2017-01-04T07:00:00Z,26.4679,-82.0631,1.96,33.4,1111122 
SCCF RECON,ioos:station:SCCF:11:1,2017-01-04T08:00:00Z,26.4679,-82.0631,2.02,33.55,1111122 
SCCF RECON,ioos:station:SCCF:11:1,2017-01-04T09:00:00Z,26.4679,-82.0631,2.07,33.47,1111122 
SCCF RECON,ioos:station:SCCF:11:1,2017-01-04T10:00:00Z,26.4679,-82.0631,2.09,33.5,1111122 
SCCF RECON,ioos:station:SCCF:11:1,2017-01-04T11:00:00Z,26.4679,-82.0631,2.046,33.31,1111122 
SCCF RECON,ioos:station:SCCF:11:1,2017-01-04T12:00:00Z,26.4679,-82.0631,1.955,32.2,1111122 
SCCF RECON,ioos:station:SCCF:11:1,2017-01-04T13:00:00Z,26.4679,-82.0631,1.848,32.17,1111122 
SCCF RECON,ioos:station:SCCF:11:1,2017-01-04T14:00:00Z,26.4679,-82.0631,1.729,32.02,1111122 
SCCF RECON,ioos:station:SCCF:11:1,2017-01-04T15:00:00Z,26.4679,-82.0631,1.64,31.97,1111122 
SCCF RECON,ioos:station:SCCF:11:1,2017-01-04T16:00:00Z,26.4679,-82.0631,1.584,31.9,1111122 
SCCF RECON,ioos:station:SCCF:11:1,2017-01-04T17:00:00Z,26.4679,-82.0631,1.577,31.99,1111122 
SCCF RECON,ioos:station:SCCF:11:1,2017-01-04T18:00:00Z,26.4679,-82.0631,1.659,32.25,1111122 
SCCF RECON,ioos:station:SCCF:11:1,2017-01-04T19:00:00Z,26.4679,-82.0631,1.773,33.19,1111122 
SCCF RECON,ioos:station:SCCF:11:1,2017-01-04T20:00:00Z,26.4679,-82.0631,1.893,32.97,1111122 
SCCF RECON,ioos:station:SCCF:11:1,2017-01-04T21:00:00Z,26.4679,-82.0631,1.98,32.91,1111122 
SCCF RECON,ioos:station:SCCF:11:1,2017-01-04T22:00:00Z,26.4679,-82.0631,2.055,33.0,1111122 
SCCF RECON,ioos:station:SCCF:11:1,2017-01-04T23:00:00Z,26.4679,-82.0631,2.061,32.53,1111122 
SCCF RECON,ioos:station:SCCF:11:1,2017-01-05T00:00:00Z,26.4679,-82.0631,2.0,32.38,1111122 
SCCF RECON,ioos:station:SCCF:11:1,2017-01-05T01:00:00Z,26.4679,-82.0631,1.92,32.29,1111122 
SCCF RECON,ioos:station:SCCF:11:1,2017-01-05T02:00:00Z,26.4679,-82.0631,1.83,32.18,1111122 
SCCF RECON,ioos:station:SCCF:11:1,2017-01-05T03:00:00Z,26.4679,-82.0631,1.74,32.12,1111122 
SCCF RECON,ioos:station:SCCF:11:1,2017-01-05T04:00:00Z,26.4679,-82.0631,1.66,32.13,1111122 
SCCF RECON,ioos:station:SCCF:11:1,2017-01-05T05:00:00Z,26.4679,-82.0631,1.61,32.15,1111122 
SCCF RECON,ioos:station:SCCF:11:1,2017-01-05T06:00:00Z,26.4679,-82.0631,1.614,32.08,1111122 
SCCF RECON,ioos:station:SCCF:11:1,2017-01-05T07:00:00Z,26.4679,-82.0631,1.68,32.11,1111122 
SCCF RECON,ioos:station:SCCF:11:1,2017-01-05T08:00:00Z,26.4679,-82.0631,1.79,32.16,1111122 
SCCF RECON,ioos:station:SCCF:11:1,2017-01-05T09:00:00Z,26.4679,-82.0631,1.88,32.2,1111122 
SCCF RECON,ioos:station:SCCF:11:1,2017-01-05T10:00:00Z,26.4679,-82.0631,1.92,32.24,1111122 
SCCF RECON,ioos:station:SCCF:11:1,2017-01-05T11:00:00Z,26.4679,-82.0631,1.932,32.29,1111122 
SCCF RECON,ioos:station:SCCF:11:1,2017-01-05T12:00:00Z,26.4679,-82.0631,1.904,32.27,1111122 
SCCF RECON,ioos:station:SCCF:11:1,2017-01-05T13:00:00Z,26.4679,-82.0631,1.82,32.14,1111122 
SCCF RECON,ioos:station:SCCF:11:1,2017-01-05T14:00:00Z,26.4679,-82.0631,1.73,32.12,1111122 
SCCF RECON,ioos:station:SCCF:11:1,2017-01-05T15:00:00Z,26.4679,-82.0631,1.66,32.06,1111122 
SCCF RECON,ioos:station:SCCF:11:1,2017-01-05T16:00:00Z,26.4679,-82.0631,1.611,32.04,1111122 
SCCF RECON,ioos:station:SCCF:11:1,2017-01-05T17:00:00Z,26.4679,-82.0631,1.583,32.03,1111122 
SCCF RECON,ioos:station:SCCF:11:1,2017-01-05T18:00:00Z,26.4679,-82.0631,1.585,32.02,1111122 
SCCF RECON,ioos:station:SCCF:11:1,2017-01-05T19:00:00Z,26.4679,-82.0631,1.648,32.04,1111122 
SCCF RECON,ioos:station:SCCF:11:1,2017-01-05T20:00:00Z,26.4679,-82.0631,1.756,32.26,1111122 
SCCF RECON,ioos:station:SCCF:11:1,2017-01-05T21:00:00Z,26.4679,-82.0631,1.873,32.34,1111122 
SCCF RECON,ioos:station:SCCF:11:1,2017-01-05T22:00:00Z,26.4679,-82.0631,1.959,32.42,1111122 
SCCF RECON,ioos:station:SCCF:11:1,2017-01-05T23:00:00Z,26.4679,-82.0631,2.028,32.52,1111122 
SCCF RECON,ioos:station:SCCF:11:1,2017-01-06T00:00:00Z,26.4679,-82.0631,2.05,32.53,1111122 
SCCF RECON,ioos:station:SCCF:11:1,2017-01-06T01:00:00Z,26.4679,-82.0631,2.021,32.5,1111122 
SCCF RECON,ioos:station:SCCF:11:1,2017-01-06T02:00:00Z,26.4679,-82.0631,1.93,32.17,1111122 
SCCF RECON,ioos:station:SCCF:11:1,2017-01-06T03:00:00Z,26.4679,-82.0631,1.829,32.15,1111122 
SCCF RECON,ioos:station:SCCF:11:1,2017-01-06T04:00:00Z,26.4679,-82.0631,1.74,32.1,1111122 
SCCF RECON,ioos:station:SCCF:11:1,2017-01-06T05:00:00Z,26.4679,-82.0631,1.673,32.08,1111122 
SCCF RECON,ioos:station:SCCF:11:1,2017-01-06T06:00:00Z,26.4679,-82.0631,1.61,32.09,1111122 
SCCF RECON,ioos:station:SCCF:11:1,2017-01-06T07:00:00Z,26.4679,-82.0631,1.58,32.08,1111122 
SCCF RECON,ioos:station:SCCF:11:1,2017-01-06T08:00:00Z,26.4679,-82.0631,1.649,32.13,1111122 
SCCF RECON,ioos:station:SCCF:11:1,2017-01-06T09:00:00Z,26.4679,-82.0631,1.76,32.2,1111122 
SCCF RECON,ioos:station:SCCF:11:1,2017-01-06T10:00:00Z,26.4679,-82.0631,1.853,32.42,1111122 
SCCF RECON,ioos:station:SCCF:11:1,2017-01-06T11:00:00Z,26.4679,-82.0631,1.91,32.42,1111122 
SCCF RECON,ioos:station:SCCF:11:1,2017-01-06T12:00:00Z,26.4679,-82.0631,1.95,32.21,1111122 
SCCF RECON,ioos:station:SCCF:11:1,2017-01-06T13:00:00Z,26.4679,-82.0631,1.956,32.12,1111122 
SCCF RECON,ioos:station:SCCF:11:1,2017-01-06T14:00:00Z,26.4679,-82.0631,1.929,32.25,1111122 
SCCF RECON,ioos:station:SCCF:11:1,2017-01-06T15:00:00Z,26.4679,-82.0631,1.859,32.25,1111122 
SCCF RECON,ioos:station:SCCF:11:1,2017-01-06T16:00:00Z,26.4679,-82.0631,1.787,32.25,1111122 
SCCF RECON,ioos:station:SCCF:11:1,2017-01-06T17:00:00Z,26.4679,-82.0631,1.729,32.18,1111122 
SCCF RECON,ioos:station:SCCF:11:1,2017-01-06T18:00:00Z,26.4679,-82.0631,1.664,32.2,1111122 
SCCF RECON,ioos:station:SCCF:11:1,2017-01-06T19:00:00Z,26.4679,-82.0631,1.679,32.13,1111122 
SCCF RECON,ioos:station:SCCF:11:1,2017-01-06T20:00:00Z,26.4679,-82.0631,1.785,32.29,1111122 
SCCF RECON,ioos:station:SCCF:11:1,2017-01-06T21:00:00Z,26.4679,-82.0631,1.897,32.58,1111122 
SCCF RECON,ioos:station:SCCF:11:1,2017-01-06T22:00:00Z,26.4679,-82.0631,1.985,32.64,1111122 
SCCF RECON,ioos:station:SCCF:11:1,2017-01-06T23:00:00Z,26.4679,-82.0631,2.091,32.79,1111122 
SCCF RECON,ioos:station:SCCF:11:1,2017-01-07T00:00:00Z,26.4679,-82.0631,2.163,33.09,1111122 
SCCF RECON,ioos:station:SCCF:11:1,2017-01-07T01:00:00Z,26.4679,-82.0631,2.21,33.42,1111122 
SCCF RECON,ioos:station:SCCF:11:1,2017-01-07T02:00:00Z,26.4679,-82.0631,2.199,33.76,1111122 
SCCF RECON,ioos:station:SCCF:11:1,2017-01-07T03:00:00Z,26.4679,-82.0631,2.107,32.67,1111122 
SCCF RECON,ioos:station:SCCF:11:1,2017-01-07T04:00:00Z,26.4679,-82.0631,1.99,32.41,1111122 
SCCF RECON,ioos:station:SCCF:11:1,2017-01-07T05:00:00Z,26.4679,-82.0631,1.9,32.31,1111122 
SCCF RECON,ioos:station:SCCF:11:1,2017-01-07T06:00:00Z,26.4679,-82.0631,1.802,32.37,1111122 
SCCF RECON,ioos:station:SCCF:11:1,2017-01-07T07:00:00Z,26.4679,-82.0631,1.71,32.35,1111122 
SCCF RECON,ioos:station:SCCF:11:1,2017-01-07T08:00:00Z,26.4679,-82.0631,1.67,32.27,1111122 
SCCF RECON,ioos:station:SCCF:11:1,2017-01-07T09:00:00Z,26.4679,-82.0631,1.755,32.78,1111122 
SCCF RECON,ioos:station:SCCF:11:1,2017-01-07T10:00:00Z,26.4679,-82.0631,1.87,33.7,1111122 
SCCF RECON,ioos:station:SCCF:11:1,2017-01-07T11:00:00Z,26.4679,-82.0631,1.97,33.46,1111122 
SCCF RECON,ioos:station:SCCF:11:1,2017-01-07T12:00:00Z,26.4679,-82.0631,2.05,33.76,1111122 
SCCF RECON,ioos:station:SCCF:11:1,2017-01-07T13:00:00Z,26.4679,-82.0631,2.117,33.74,1111122 
SCCF RECON,ioos:station:SCCF:11:1,2017-01-07T14:00:00Z,26.4679,-82.0631,2.115,33.62,1111122 
SCCF RECON,ioos:station:SCCF:11:1,2017-01-07T15:00:00Z,26.4679,-82.0631,2.07,33.05,1111122 
SCCF RECON,ioos:station:SCCF:11:1,2017-01-07T16:00:00Z,26.4679,-82.0631,2.122,32.79,1111122 
SCCF RECON,ioos:station:SCCF:11:1,2017-01-07T17:00:00Z,26.4679,-82.0631,2.033,32.44,1111122 
SCCF RECON,ioos:station:SCCF:11:1,2017-01-07T18:00:00Z,26.4679,-82.0631,1.902,32.16,1111122 
SCCF RECON,ioos:station:SCCF:11:1,2017-01-07T19:00:00Z,26.4679,-82.0631,1.791,32.15,1111122 
SCCF RECON,ioos:station:SCCF:11:1,2017-01-07T20:00:00Z,26.4679,-82.0631,1.743,31.99,1111122 
SCCF RECON,ioos:station:SCCF:11:1,2017-01-07T21:00:00Z,26.4679,-82.0631,1.731,31.88,1111122 
SCCF RECON,ioos:station:SCCF:11:1,2017-01-07T22:00:00Z,26.4679,-82.0631,1.729,31.84,1111122 
SCCF RECON,ioos:station:SCCF:11:1,2017-01-07T23:00:00Z,26.4679,-82.0631,1.755,31.76,1111122 
SCCF RECON,ioos:station:SCCF:11:1,2017-01-08T00:00:00Z,26.4679,-82.0631,1.813,31.87,1111122 
SCCF RECON,ioos:station:SCCF:11:1,2017-01-08T01:00:00Z,26.4679,-82.0631,1.839,31.89,1111122 
SCCF RECON,ioos:station:SCCF:11:1,2017-01-08T02:00:00Z,26.4679,-82.0631,1.835,31.95,1111122 
SCCF RECON,ioos:station:SCCF:11:1,2017-01-08T03:00:00Z,26.4679,-82.0631,1.811,31.81,1111122 
SCCF RECON,ioos:station:SCCF:11:1,2017-01-08T04:00:00Z,26.4679,-82.0631,1.736,31.91,1111122 
SCCF RECON,ioos:station:SCCF:11:1,2017-01-08T05:00:00Z,26.4679,-82.0631,1.605,31.93,1111122 
SCCF RECON,ioos:station:SCCF:11:1,2017-01-08T06:00:00Z,26.4679,-82.0631,1.483,31.83,1111122 
SCCF RECON,ioos:station:SCCF:11:1,2017-01-08T07:00:00Z,26.4679,-82.0631,1.32,31.68,1111122 
SCCF RECON,ioos:station:SCCF:11:1,2017-01-08T08:00:00Z,26.4679,-82.0631,1.223,31.57,1111122 
SCCF RECON,ioos:station:SCCF:11:1,2017-01-08T09:00:00Z,26.4679,-82.0631,1.144,31.54,1111122 
SCCF RECON,ioos:station:SCCF:11:1,2017-01-08T10:00:00Z,26.4679,-82.0631,1.128,31.59,1111122 
SCCF RECON,ioos:station:SCCF:11:1,2017-01-08T11:00:00Z,26.4679,-82.0631,1.186,31.74,1111122 
SCCF RECON,ioos:station:SCCF:11:1,2017-01-08T12:00:00Z,26.4679,-82.0631,1.296,31.22,1111122 
SCCF RECON,ioos:station:SCCF:11:1,2017-01-08T13:00:00Z,26.4679,-82.0631,1.409,31.33,1111122 
SCCF RECON,ioos:station:SCCF:11:1,2017-01-08T14:00:00Z,26.4679,-82.0631,1.493,31.66,1111122 
SCCF RECON,ioos:station:SCCF:11:1,2017-01-08T15:00:00Z,26.4679,-82.0631,1.548,31.65,1111122 
SCCF RECON,ioos:station:SCCF:11:1,2017-01-08T16:00:00Z,26.4679,-82.0631,1.562,31.65,1111122 
SCCF RECON,ioos:station:SCCF:11:1,2017-01-08T17:00:00Z,26.4679,-82.0631,1.571,31.64,1111122 
SCCF RECON,ioos:station:SCCF:11:1,2017-01-08T18:00:00Z,26.4679,-82.0631,1.574,31.65,1111122 
SCCF RECON,ioos:station:SCCF:11:1,2017-01-08T19:00:00Z,26.4679,-82.0631,1.584,31.62,1111122 
SCCF RECON,ioos:station:SCCF:11:1,2017-01-08T20:00:00Z,26.4679,-82.0631,1.601,31.67,1111122 
SCCF RECON,ioos:station:SCCF:11:1,2017-01-08T21:00:00Z,26.4679,-82.0631,1.59,31.67,1111122 
SCCF RECON,ioos:station:SCCF:11:1,2017-01-08T22:00:00Z,26.4679,-82.0631,1.665,31.68,1111122 
SCCF RECON,ioos:station:SCCF:11:1,2017-01-08T23:00:00Z,26.4679,-82.0631,1.819,31.68,1111122 
SCCF RECON,ioos:station:SCCF:11:1,2017-01-09T00:00:00Z,26.4679,-82.0631,1.961,31.69,1111122 
SCCF RECON,ioos:station:SCCF:11:1,2017-01-09T01:00:00Z,26.4679,-82.0631,2.058,28.67,1111122 
SCCF RECON,ioos:station:SCCF:11:1,2017-01-09T02:00:00Z,26.4679,-82.0631,2.121,28.69,1111122 
SCCF RECON,ioos:station:SCCF:11:1,2017-01-09T03:00:00Z,26.4679,-82.0631,2.043,30.96,1111122 
SCCF RECON,ioos:station:SCCF:11:1,2017-01-09T04:00:00Z,26.4679,-82.0631,1.938,30.98,1111122 
SCCF RECON,ioos:station:SCCF:11:1,2017-01-09T05:00:00Z,26.4679,-82.0631,1.804,31.45,1111122 
SCCF RECON,ioos:station:SCCF:11:1,2017-01-09T06:00:00Z,26.4679,-82.0631,1.688,31.59,1111122 
SCCF RECON,ioos:station:SCCF:11:1,2017-01-09T07:00:00Z,26.4679,-82.0631,1.551,31.67,1111122 
SCCF RECON,ioos:station:SCCF:11:1,2017-01-09T08:00:00Z,26.4679,-82.0631,1.424,31.7,1111122 
SCCF RECON,ioos:station:SCCF:11:1,2017-01-09T09:00:00Z,26.4679,-82.0631,1.315,31.7,1111122 
SCCF RECON,ioos:station:SCCF:11:1,2017-01-09T10:00:00Z,26.4679,-82.0631,1.237,31.7,1111122 
SCCF RECON,ioos:station:SCCF:11:1,2017-01-09T11:00:00Z,26.4679,-82.0631,1.254,31.72,1111122 
SCCF RECON,ioos:station:SCCF:11:1,2017-01-09T12:00:00Z,26.4679,-82.0631,1.386,31.71,1111122 
SCCF RECON,ioos:station:SCCF:11:1,2017-01-09T13:00:00Z,26.4679,-82.0631,1.558,31.71,1111122 
SCCF RECON,ioos:station:SCCF:11:1,2017-01-09T14:00:00Z,26.4679,-82.0631,1.691,31.71,1111122 
SCCF RECON,ioos:station:SCCF:11:1,2017-01-09T15:00:00Z,26.4679,-82.0631,1.804,31.66,1111122 
SCCF RECON,ioos:station:SCCF:11:1,2017-01-09T16:00:00Z,26.4679,-82.0631,1.881,31.29,1111122 
SCCF RECON,ioos:station:SCCF:11:1,2017-01-09T17:00:00Z,26.4679,-82.0631,1.89,31.1,1111122 
SCCF RECON,ioos:station:SCCF:11:1,2017-01-09T18:00:00Z,26.4679,-82.0631,1.821,31.35,1111122 
SCCF RECON,ioos:station:SCCF:11:1,2017-01-09T19:00:00Z,26.4679,-82.0631,1.749,31.51,1111122 
SCCF RECON,ioos:station:SCCF:11:1,2017-01-09T20:00:00Z,26.4679,-82.0631,1.72,31.58,1111122 
SCCF RECON,ioos:station:SCCF:11:1,2017-01-09T21:00:00Z,26.4679,-82.0631,1.72,31.7,1111122 
SCCF RECON,ioos:station:SCCF:11:1,2017-01-09T22:00:00Z,26.4679,-82.0631,1.79,31.48,1111122 
SCCF RECON,ioos:station:SCCF:11:1,2017-01-09T23:00:00Z,26.4679,-82.0631,1.89,30.94,1111122 
SCCF RECON,ioos:station:SCCF:11:1,2017-01-10T00:00:00Z,26.4679,-82.0631,1.99,30.53,1111122 
SCCF RECON,ioos:station:SCCF:11:1,2017-01-10T01:00:00Z,26.4679,-82.0631,2.09,30.33,1111122 
SCCF RECON,ioos:station:SCCF:11:1,2017-01-10T02:00:00Z,26.4679,-82.0631,2.17,30.34,1111122 
SCCF RECON,ioos:station:SCCF:11:1,2017-01-10T03:00:00Z,26.4679,-82.0631,2.21,30.33,1111122 
SCCF RECON,ioos:station:SCCF:11:1,2017-01-10T04:00:00Z,26.4679,-82.0631,2.19,30.39,1111122 
SCCF RECON,ioos:station:SCCF:11:1,2017-01-10T05:00:00Z,26.4679,-82.0631,2.07,30.58,1111122 
SCCF RECON,ioos:station:SCCF:11:1,2017-01-10T06:00:00Z,26.4679,-82.0631,1.922,31.11,1111122 
SCCF RECON,ioos:station:SCCF:11:1,2017-01-10T07:00:00Z,26.4679,-82.0631,1.775,31.33,1111122 
SCCF RECON,ioos:station:SCCF:11:1,2017-01-10T08:00:00Z,26.4679,-82.0631,1.631,31.45,1111122 
SCCF RECON,ioos:station:SCCF:11:1,2017-01-10T09:00:00Z,26.4679,-82.0631,1.492,31.6,1111122 
SCCF RECON,ioos:station:SCCF:11:1,2017-01-10T10:00:00Z,26.4679,-82.0631,1.38,31.67,1111122 
SCCF RECON,ioos:station:SCCF:11:1,2017-01-10T11:00:00Z,26.4679,-82.0631,1.33,31.73,1111122 
SCCF RECON,ioos:station:SCCF:11:1,2017-01-10T12:00:00Z,26.4679,-82.0631,1.409,31.55,1111122 
SCCF RECON,ioos:station:SCCF:11:1,2017-01-10T13:00:00Z,26.4679,-82.0631,1.595,31.54,1111122 
SCCF RECON,ioos:station:SCCF:11:1,2017-01-10T14:00:00Z,26.4679,-82.0631,1.76,31.46,1111122 
SCCF RECON,ioos:station:SCCF:11:1,2017-01-10T15:00:00Z,26.4679,-82.0631,1.9,31.29,1111122 
SCCF RECON,ioos:station:SCCF:11:1,2017-01-10T16:00:00Z,26.4679,-82.0631,2.02,31.19,1111122 
SCCF RECON,ioos:station:SCCF:11:1,2017-01-10T17:00:00Z,26.4679,-82.0631,2.088,31.11,1111122 
SCCF RECON,ioos:station:SCCF:11:1,2017-01-10T18:00:00Z,26.4679,-82.0631,2.097,30.87,1111122 
SCCF RECON,ioos:station:SCCF:11:1,2017-01-10T19:00:00Z,26.4679,-82.0631,2.04,31.09,1111122 
SCCF RECON,ioos:station:SCCF:11:1,2017-01-10T20:00:00Z,26.4679,-82.0631,1.965,31.11,1111122 
SCCF RECON,ioos:station:SCCF:11:1,2017-01-10T21:00:00Z,26.4679,-82.0631,1.9,31.22,1111122 
SCCF RECON,ioos:station:SCCF:11:1,2017-01-10T22:00:00Z,26.4679,-82.0631,1.941,31.21,1111122 
SCCF RECON,ioos:station:SCCF:11:1,2017-01-10T23:00:00Z,26.4679,-82.0631,1.985,31.18,1111122 
SCCF RECON,ioos:station:SCCF:11:1,2017-01-11T00:00:00Z,26.4679,-82.0631,2.1,31.24,1111122 
SCCF RECON,ioos:station:SCCF:11:1,2017-01-11T01:00:00Z,26.4679,-82.0631,2.22,31.18,1111122 
SCCF RECON,ioos:station:SCCF:11:1,2017-01-11T02:00:00Z,26.4679,-82.0631,2.31,31.24,1111122 
SCCF RECON,ioos:station:SCCF:11:1,2017-01-11T03:00:00Z,26.4679,-82.0631,2.37,31.62,1111122 
SCCF RECON,ioos:station:SCCF:11:1,2017-01-11T04:00:00Z,26.4679,-82.0631,2.44,32.3,1111122 
SCCF RECON,ioos:station:SCCF:11:1,2017-01-11T05:00:00Z,26.4679,-82.0631,2.439,32.2,1111122 
SCCF RECON,ioos:station:SCCF:11:1,2017-01-11T06:00:00Z,26.4679,-82.0631,2.3,31.39,1111122 
SCCF RECON,ioos:station:SCCF:11:1,2017-01-11T07:00:00Z,26.4679,-82.0631,2.109,31.43,1111122 
SCCF RECON,ioos:station:SCCF:11:1,2017-01-11T08:00:00Z,26.4679,-82.0631,1.929,31.47,1111122 
SCCF RECON,ioos:station:SCCF:11:1,2017-01-11T09:00:00Z,26.4679,-82.0631,1.751,31.51,1111122 
SCCF RECON,ioos:station:SCCF:11:1,2017-01-11T10:00:00Z,26.4679,-82.0631,1.581,31.57,1111122 
SCCF RECON,ioos:station:SCCF:11:1,2017-01-11T11:00:00Z,26.4679,-82.0631,1.455,31.61,1111122 
SCCF RECON,ioos:station:SCCF:11:1,2017-01-11T12:00:00Z,26.4679,-82.0631,1.402,31.62,1111122 
SCCF RECON,ioos:station:SCCF:11:1,2017-01-11T13:00:00Z,26.4679,-82.0631,1.49,31.56,1111122 
SCCF RECON,ioos:station:SCCF:11:1,2017-01-11T14:00:00Z,26.4679,-82.0631,1.666,31.53,1111122 
SCCF RECON,ioos:station:SCCF:11:1,2017-01-11T15:00:00Z,26.4679,-82.0631,1.821,31.4,1111122 
SCCF RECON,ioos:station:SCCF:11:1,2017-01-11T16:00:00Z,26.4679,-82.0631,1.95,31.47,1111122 
SCCF RECON,ioos:station:SCCF:11:1,2017-01-11T17:00:00Z,26.4679,-82.0631,2.044,31.46,1111122 